Location: Newark
(45.4422°N, 16.2769°E)
Time: 20:02:24
(UTC+00:00)

Vanguard 2 - Pass Details

Date: 11 December 2019
Orbit: 553 x 2938 km, 32.9° (Epoch: 28 January)

Event Time Altitude Azimuth Distance (km) Brightness Sun altitude
Rises 04:00:28 0° 267° (W) 6,621 - -24.2°
Reaches altitude 10° 04:04:58 10° 263° (W) 5,717 - -23.5°
Exits shadow 04:10:04 23° 254° (WSW) 4,756 11.0 -22.6°
Maximum altitude 04:21:26 47° 197° (SSW) 3,409 10.7 -20.6°
Drops below altitude 10° 04:35:08 10° 130° (SE) 4,804 12.5 -18.3°
Sets 04:38:33 0° 125° (SE) 5,527 13.3 -17.7°
